Location: Clegg Observatory
(38.9178°N, 78.6069°W)
Time: 16:10:46
(UTC-04:00)

Daily predictions for brighter satellites

Satellite Brightness Start Highest point End
(mag) Time Altitude Azimuth Time Altitude Azimuth Time Altitude Azimuth
Cosmos 1655 Rocket 4.2 21:05:19 10° N 21:11:37 82° W 21:17:49 10° S
Cosmos 1733 4.0 21:12:58 10° NNW 21:16:39 52° W 21:20:19 10° S
YAOGAN 6 3.9 21:15:25 10° S 21:18:46 40° W 21:22:07 10° NNW
Cosmos 2263 Rocket 2.9 21:13:43 10° SW 21:19:20 61° WNW 21:24:57 10° NNE
Cosmos 158 Rocket 4.1 21:14:25 10° SSW 21:19:45 89° WNW 21:25:00 10° NNE
Cosmos 2266 Rocket 4.1 21:16:48 10° N 21:23:11 65° E 21:29:25 10° SSE
Cosmos 1452 Rocket 3.6 21:18:08 10° NNW 21:23:26 70° ENE 21:28:41 10° SSE
Spot 2 Rocket 3.5 21:18:28 10° SSE 21:23:28 74° ENE 21:28:31 10° N
Cosmos 1420 Rocket 4.1 21:19:43 10° NNW 21:24:52 63° ENE 21:29:59 10° SSE
Cosmos 1939 Rocket 4.0 21:22:38 10° S 21:26:33 44° W 21:30:26 10° NNW
GENESIS II 4.2 21:27:08 10° SSW 21:30:55 55° ESE 21:34:44 10° NE
Meteor 1-16 Rocket 4.3 21:28:20 10° N 21:33:52 70° E 21:39:34 10° SSE
In-Cosmos 22 4.4 21:31:29 10° SSE 21:36:47 51° E 21:42:16 10° NNE
Cosmos 1707 4.1 21:39:06 10° SSW 21:42:45 41° W 21:46:25 10° N
Cosmos 1607 4.5 21:37:18 10° NW 21:43:33 58° WSW 21:49:37 10° SSE
H-2A R/B 2.5 21:40:36 12° SE 21:45:17 48° ENE 21:50:27 10° N
MetOp-B 4.4 21:44:20 12° SE 21:49:02 52° ENE 21:54:14 10° N
ATLAS 3B R/B 3.9 21:45:57 10° NNW 21:51:34 28° NE 21:57:07 10° E
Cosmos 1315 Rocket 2.8 21:47:59 10° S 21:52:01 84° E 21:56:08 10° N
Cosmos-2242 3.6 21:47:56 10° N 21:52:06 41° ENE 21:55:07 17° SE
Cosmos 1674 3.6 21:50:52 17° SE 21:53:06 30° E 21:56:28 10° NNE
Cosmos 1269 Rocket 4.0 21:48:51 10° S 21:54:06 69° ESE 21:59:24 10° NNE
Cosmos 2084 4.0 21:53:05 10° NNW 21:56:44 39° NE 21:59:10 18° ESE
Cosmos 494 Rocket 4.3 21:57:11 10° S 22:02:08 45° ESE 22:07:08 10° NNE
BREEZE-M R/B 4.2 22:01:24 10° W 22:03:15 15° SW 22:04:34 11° SSW
DMSP B5D2-2 4.4 22:01:42 10° NNE 22:06:42 44° E 22:10:30 16° SSE
ERS-2 4.2 22:06:55 10° SSW 22:09:55 24° W 22:12:57 10° NW
Cosmos 2278 Rocket 3.4 22:08:19 19° SE 22:10:08 22° E 22:14:25 10° NE
Helios 1A 4.0 22:09:19 21° ESE 22:11:18 31° ENE 22:15:01 10° N
Cosmos 1953 Rocket 3.7 22:07:13 10° SSW 22:11:32 73° W 22:15:56 10° N
SPOT 5 3.7 22:08:36 20° SE 22:11:36 39° ENE 22:16:27 10° N
Cosmos 1726 3.2 22:10:55 10° NNE 22:14:16 30° ENE 22:15:28 25° ESE
Cosmos 1238 Rocket 2.7 22:13:47 12° SSW 22:16:26 54° W 22:19:23 10° N
ATLAS 2AS CENTAUR R/B 3.1 22:08:51 10° SSW 22:16:37 88° ESE 22:24:47 10° NNE
Cosmos 1758 Rocket 4.4 22:12:44 10° SSW 22:17:03 50° W 22:21:22 10° N
Timation 1 Rocket 4.3 22:11:54 10° SSW 22:17:49 75° ESE 22:23:48 10° NNE
Resurs 01 Rocket 4.0 22:14:49 10° SW 22:18:01 20° W 22:21:15 10° NW
ARGOS 3.4 22:13:56 13° S 22:18:44 69° WSW 22:24:10 10° NNW
OAO 3 Rocket 3.3 22:13:54 10° WSW 22:18:45 55° S 22:21:44 22° ESE
Lacrosse 5 2.8 22:13:51 10° WSW 22:18:46 50° NW 22:23:42 10° NE
SL-8 R/B 3.7 22:15:32 10° WSW 22:20:22 85° NW 22:25:14 10° ENE
Iridium 18 4.3 22:20:45 32° SSE 22:22:05 69° E 22:25:44 10° N
Helios 1B rocket 3.4 22:18:55 10° NE 22:22:30 29° E 22:23:15 27° ESE
COSMOS 2406 3.7 22:17:39 10° NNW 22:23:13 47° ENE 22:26:24 24° SE
CSL-04 DEB 4.2 22:25:14 30° SSE 22:27:06 78° ENE 22:31:02 10° N
SL-14 R/B 4.5 22:26:56 24° E 22:27:15 24° E 22:30:28 10° NE
Cosmos 2251 Rocket 4.1 22:25:25 25° SSE 22:27:48 38° ESE 22:32:42 10° NE
ERS-1 Rocket 2.9 22:26:46 23° SSE 22:29:59 89° WSW 22:35:03 10° NNW
Cosmos 1346 Rocket 3.0 22:26:33 10° NNW 22:30:33 69° W 22:32:46 25° S
CZ-2C R/B 4.4 22:28:42 20° ESE 22:31:30 31° ENE 22:36:28 10° N
Cosmos 1844 3.7 22:26:01 10° SSW 22:31:42 87° ESE 22:37:29 10° NNE
Cosmos 1844 Rocket 2.9 22:26:15 10° SSW 22:31:54 72° WNW 22:37:34 10° NNE
Cosmos 1417 Rocket 4.5 22:27:02 14° S 22:32:35 81° E 22:38:54 10° N
KORONAS-FOTON 3.7 22:33:26 29° S 22:35:18 81° E 22:39:14 10° N
OE (NEXTSAT) 4.2 22:35:04 10° WNW 22:38:37 82° SSW 22:39:24 51° SE
SL-08 RB Rocket 4.4 22:35:39 18° S 22:38:52 50° W 22:43:26 10° NNW
Cosmos 2221 3.8 22:37:50 10° NNE 22:41:28 26° ENE 22:42:13 24° E
ATLAS 3B CENTAUR R/B 4.1 22:28:45 10° SW 22:43:30 32° S 22:46:47 26° SE
USA 215 4.5 22:40:27 16° S 22:44:39 29° SW 22:50:15 10° WNW
Cosmos 921 Rocket 3.2 22:42:54 10° NNW 22:47:21 69° WSW 22:49:15 34° S
Cosmos 1745 Rocket 4.0 22:43:35 10° N 22:49:55 71° E 22:53:00 32° SSE
Meteor 1-29 3.6 22:47:18 10° NNE 22:50:08 39° ENE 22:50:08 39° ENE
ATLAS 5 CENTAUR R/B 2.9 22:53:53 24° E 22:53:53 24° E 22:56:41 10° NE
NOSS 3-4 (A) 3.6 22:50:38 25° S 22:54:02 51° ESE 23:00:08 10° NE
NOSS 3-4 (C) 3.6 22:50:51 26° S 22:54:07 51° ESE 23:00:13 10° NE
SL-08 R/B 4.5 22:50:11 10° N 22:56:21 82° W 22:59:48 28° S
Landsat 7 3.7 22:54:52 40° SSE 22:56:35 84° ENE 23:01:22 10° N
Cosmos 2082 Rocket 3.9 22:54:35 10° N 22:58:53 21° NE 23:01:32 16° E
CENTAUR R/B 4.4 22:53:46 10° NNW 23:00:37 31° NE 23:07:07 13° E
Cosmos 1908 4.3 22:57:45 10° NNW 23:01:23 40° W 23:02:49 28° SW
Cosmos 1833 Rocket 4.1 22:59:30 10° N 23:04:09 26° ENE 23:06:24 20° E
Meteor 2-13 Rocket 4.4 23:01:18 10° N 23:07:24 87° E 23:10:01 37° S
Cosmos 1461 3.0 23:08:01 46° S 23:09:16 71° ESE 23:14:02 10° NE
CARTOSAT-1 3.4 23:10:02 57° SSE 23:10:53 89° E 23:15:14 10° NNW
Cosmos 1626 2.9 23:14:08 40° ENE 23:14:08 40° ENE 23:17:06 10° NNE
Spot 1 4.0 23:13:56 60° SSE 23:14:42 84° ENE 23:19:15 10° NNW
S3M 4.4 23:10:09 18° SSW 23:14:53 61° W 23:21:14 10° N
Cosmos 220 Rocket 4.5 23:13:14 27° SW 23:15:19 55° WNW 23:19:28 10° N
Terra 1.7 23:14:51 53° SSE 23:15:58 85° ENE 23:20:45 10° NNW
CZ-2C R/B 2.8 23:10:57 10° NNE 23:16:12 50° E 23:17:05 46° SE
Cosmos 1340 3.4 23:13:54 10° NNW 23:17:32 45° W 23:18:05 41° WSW
IGS 5A 3.5 23:19:09 59° SSW 23:19:45 69° WSW 23:23:55 10° NNW
APEX 3.1 23:17:39 10° NNW 23:20:32 73° NNW 23:20:32 73° NNW
Cosmos 1709 Rocket 4.0 23:17:15 10° N 23:23:26 64° E 23:25:14 45° SE
NOSS 2-2 (D) 4.2 23:24:53 37° ENE 23:24:53 37° ENE 23:27:44 10° NE
SPOT 1/Viking Rocket 4.3 23:22:20 29° SSW 23:24:21 43° W 23:29:16 10° NNW
H-2A R/B 4.2 23:21:14 10° SW 23:24:56 20° W 23:28:49 10° NW
YAOGAN 11 4.1 23:26:55 67° SE 23:27:30 80° ENE 23:32:05 10° N
Cosmos 1455 4.0 23:28:03 10° NNE 23:30:25 22° ENE 23:30:25 22° ENE
Cosmos 1300 3.0 23:28:02 10° NNW 23:31:48 59° W 23:31:48 59° W
Cosmos 1076 Rocket 3.3 23:32:55 78° E 23:32:55 78° E 23:37:09 10° N
Cosmos 1766 Rocket 4.4 23:34:46 37° ENE 23:34:46 37° ENE 23:38:24 10° NNE
Cosmos 1328 3.9 23:34:47 68° NE 23:34:47 68° NE 23:38:20 10° N
Meteor 1-11 4.4 23:37:29 50° ESE 23:38:15 54° E 23:43:53 10° NNE
SL-27 R/B 4.3 23:35:34 10° N 23:38:04 24° NE 23:38:04 24° NE
Spot 4 4.1 23:38:24 51° E 23:38:55 53° ENE 23:43:39 10° N
USA 238 DEB 4.3 23:35:00 10° NW 23:41:49 48° WSW 23:44:13 36° SSW
USA 238 4.3 23:35:06 10° NW 23:41:55 49° WSW 23:44:19 36° SSW
ATLAS 3B R/B 2.7 23:36:11 10° NW 23:42:40 61° WSW 23:44:26 45° S
SL-08 ROCKET BODY 4.4 23:39:30 10° N 23:45:44 78° E 23:47:11 55° SSE
NOSS 2-2 (C) 3.6 23:50:16 65° N 23:50:16 65° N 23:53:59 10° NNE
H-2A R/B 4.4 23:50:04 12° ENE 23:50:18 12° ENE 23:51:51 10° NE
Mayak 0.7 23:47:42 10° NE 23:49:39 20° ENE 23:49:39 20° ENE
Cosmos 2278 Rocket 3.0 23:50:05 20° SW 23:53:50 47° WNW 23:59:19 10° NNE
